Location: Nairn
(57.5833°N, 3.8667°W)
Time: 02:13:30
(UTC+00:00)

Transit 2A - Pass Details

Date: 29 November 2020
Orbit: 598 x 960 km, 66.7° (Epoch: 20 January)

Event Time Altitude Azimuth Distance (km) Brightness Sun altitude
Rises 18:50:08 0° 228° (SW) 3,613 10.2 -24.3°
Reaches altitude 10° 18:52:45 10° 229° (SW) 2,647 9.4 -24.6°
Maximum altitude 18:58:58 83° 317° (NW) 906 6.3 -25.4°
Enters shadow 19:00:18 56° 37° (NE) 1,044 6.4 -25.6°
